Location: Arrington
(35.8681°N, 86.7092°W)
Time: 14:10:00
(UTC+00:00)

Cosmos 1048 Rocket - Pass Details

Date: 23 November 2019
Orbit: 743 x 792 km, 74.0° (Epoch: 13 December)

Event Time Altitude Azimuth Distance (km) Brightness Sun altitude
Exits shadow 11:13:10 13° 329° (NNW) 2,126 5.9 -15.7°
Maximum altitude 11:17:42 50° 257° (WSW) 995 4.2 -14.8°
Drops below altitude 10° 11:22:46 10° 183° (S) 2,314 6.6 -13.8°
Sets 11:25:11 0° 178° (S) 3,229 7.5 -13.3°
